Year,Month,Day,Hour,Minute,Value (Times are PST for temperature in C)
2014,08,19,09,25,18.80
2014,08,19,09,26,18.80
2014,08,19,09,27,18.90
2014,08,19,09,28,19.00
2014,08,19,09,29,19.10
2014,08,19,09,30,19.10
2014,08,19,09,31,19.20
2014,08,19,09,32,19.30
2014,08,19,09,33,19.40
2014,08,19,09,34,19.30
2014,08,19,09,35,19.20
2014,08,19,09,36,19.10
2014,08,19,09,37,19.00
2014,08,19,09,38,18.90
2014,08,19,09,39,18.80
2014,08,19,09,40,18.70
2014,08,19,09,41,18.70
2014,08,19,09,42,18.70
2014,08,19,09,43,18.70
2014,08,19,09,44,18.70
2014,08,19,09,45,18.60
2014,08,19,09,46,18.60
2014,08,19,09,47,18.50
2014,08,19,09,48,18.40
2014,08,19,09,49,18.20
2014,08,19,09,50,18.20
2014,08,19,09,51,18.10
2014,08,19,09,52,18.10
2014,08,19,09,53,18.10
2014,08,19,09,54,18.10
2014,08,19,09,55,18.20
2014,08,19,09,56,18.30
2014,08,19,09,57,18.40
2014,08,19,09,58,18.50
2014,08,19,09,59,18.60
2014,08,19,10,00,18.70
2014,08,19,10,01,18.80
2014,08,19,10,02,18.90
2014,08,19,10,03,18.90
2014,08,19,10,04,18.90
2014,08,19,10,05,18.90
2014,08,19,10,06,18.90
2014,08,19,10,07,18.90
2014,08,19,10,08,18.90
2014,08,19,10,09,18.90
2014,08,19,10,10,18.90
2014,08,19,10,11,18.90
2014,08,19,10,12,18.90
2014,08,19,10,13,19.00
2014,08,19,10,14,19.10
2014,08,19,10,15,19.10
2014,08,19,10,16,19.20
2014,08,19,10,17,19.30
2014,08,19,10,18,19.40
2014,08,19,10,19,19.50
2014,08,19,10,20,19.60
2014,08,19,10,21,19.70
2014,08,19,10,22,19.90
2014,08,19,10,23,20.00
2014,08,19,10,24,20.10
2014,08,19,10,25,20.20
2014,08,19,10,26,20.20
2014,08,19,10,27,20.20
2014,08,19,10,28,20.20
2014,08,19,10,29,20.20
2014,08,19,10,30,20.20
2014,08,19,10,31,20.20
2014,08,19,10,32,20.20
2014,08,19,10,33,20.10
2014,08,19,10,34,19.90
2014,08,19,10,35,19.70
2014,08,19,10,36,19.60
2014,08,19,10,37,19.70
2014,08,19,10,38,19.90
2014,08,19,10,39,19.90
2014,08,19,10,40,20.10
2014,08,19,10,41,20.10
2014,08,19,10,42,20.30
2014,08,19,10,43,20.30
2014,08,19,10,44,20.50
2014,08,19,10,45,20.60
2014,08,19,10,46,20.70
2014,08,19,10,47,20.80
2014,08,19,10,48,20.80
2014,08,19,10,49,20.90
2014,08,19,10,50,21.00
2014,08,19,10,51,21.00
2014,08,19,10,52,21.00
2014,08,19,10,53,20.90
2014,08,19,10,54,20.90
2014,08,19,10,55,20.90
2014,08,19,10,56,20.90
2014,08,19,10,57,21.00
2014,08,19,10,58,21.00
2014,08,19,10,59,21.00
2014,08,19,11,00,20.90
2014,08,19,11,01,20.80
2014,08,19,11,02,20.80
2014,08,19,11,03,20.80
2014,08,19,11,04,20.80
2014,08,19,11,05,20.70
2014,08,19,11,06,20.60
2014,08,19,11,07,20.60
2014,08,19,11,08,20.70
2014,08,19,11,09,20.80
2014,08,19,11,10,20.90
2014,08,19,11,11,20.80
2014,08,19,11,12,20.80
2014,08,19,11,13,20.70
2014,08,19,11,14,20.70
2014,08,19,11,15,20.70
2014,08,19,11,16,20.70
2014,08,19,11,17,20.60
2014,08,19,11,18,20.50
2014,08,19,11,19,20.50
2014,08,19,11,20,20.60
2014,08,19,11,21,20.50
2014,08,19,11,22,20.50
2014,08,19,11,23,20.50
2014,08,19,11,24,20.60
2014,08,19,11,25,20.70
2014,08,19,11,26,20.70
2014,08,19,11,27,20.70
2014,08,19,11,28,20.60
2014,08,19,11,29,20.60
2014,08,19,11,30,20.60
2014,08,19,11,31,20.50
2014,08,19,11,32,20.50
2014,08,19,11,33,20.50
2014,08,19,11,34,20.40
2014,08,19,11,35,20.40
2014,08,19,11,36,20.30
2014,08,19,11,37,20.20
2014,08,19,11,38,20.20
2014,08,19,11,39,20.10
2014,08,19,11,40,19.90
2014,08,19,11,41,19.90
2014,08,19,11,42,19.90
2014,08,19,11,43,20.00
2014,08,19,11,44,20.00
2014,08,19,11,45,19.90
2014,08,19,11,46,19.90
2014,08,19,11,47,19.90
2014,08,19,11,48,20.00
2014,08,19,11,49,20.20
2014,08,19,11,50,20.20
2014,08,19,11,51,20.20
2014,08,19,11,52,20.10
2014,08,19,11,53,20.10
2014,08,19,11,54,20.20
2014,08,19,11,55,20.20
2014,08,19,11,56,20.00
2014,08,19,11,57,19.90
2014,08,19,11,58,19.90
2014,08,19,11,59,19.90
2014,08,19,12,00,19.90
2014,08,19,12,01,19.90
2014,08,19,12,02,19.90
2014,08,19,12,03,19.90
2014,08,19,12,04,19.90
2014,08,19,12,05,19.90
2014,08,19,12,06,19.90
2014,08,19,12,07,19.90
2014,08,19,12,08,20.00
2014,08,19,12,09,20.10
2014,08,19,12,10,20.10
2014,08,19,12,11,20.20
2014,08,19,12,12,20.30
2014,08,19,12,13,20.30
2014,08,19,12,14,20.40
2014,08,19,12,15,20.60
2014,08,19,12,16,20.70
2014,08,19,12,17,20.80
2014,08,19,12,18,20.80
2014,08,19,12,19,20.70
2014,08,19,12,20,20.70
2014,08,19,12,21,20.80
2014,08,19,12,22,21.00
2014,08,19,12,23,21.00
2014,08,19,12,24,21.10
2014,08,19,12,25,21.20
2014,08,19,12,26,21.30
2014,08,19,12,27,21.40
2014,08,19,12,28,21.60
2014,08,19,12,29,21.70
2014,08,19,12,30,21.80
2014,08,19,12,31,21.80
2014,08,19,12,32,21.80
2014,08,19,12,33,21.90
2014,08,19,12,34,21.90
2014,08,19,12,35,21.90
2014,08,19,12,36,21.90
2014,08,19,12,37,22.00
2014,08,19,12,38,22.00
2014,08,19,12,39,22.00
2014,08,19,12,40,22.00
2014,08,19,12,41,22.00
2014,08,19,12,42,22.00
2014,08,19,12,43,21.90
2014,08,19,12,44,21.90
2014,08,19,12,45,21.80
2014,08,19,12,46,21.80
2014,08,19,12,47,21.80
2014,08,19,12,48,21.80
2014,08,19,12,49,21.80
2014,08,19,12,50,21.80
2014,08,19,12,51,21.80
2014,08,19,12,52,21.70
2014,08,19,12,53,21.60
2014,08,19,12,54,21.60
2014,08,19,12,55,21.60
2014,08,19,12,56,21.70
2014,08,19,12,57,21.70
2014,08,19,12,58,21.70
2014,08,19,12,59,21.80
2014,08,19,13,00,21.90
2014,08,19,13,01,22.00
2014,08,19,13,02,22.10
2014,08,19,13,03,22.10
2014,08,19,13,04,22.20
2014,08,19,13,05,22.20
2014,08,19,13,06,22.20
2014,08,19,13,07,22.20
2014,08,19,13,08,22.30
2014,08,19,13,09,22.30
2014,08,19,13,10,22.30
2014,08,19,13,11,22.20
2014,08,19,13,12,22.20
2014,08,19,13,13,22.20
2014,08,19,13,14,22.30
2014,08,19,13,15,22.30
2014,08,19,13,16,22.30
2014,08,19,13,17,22.30
2014,08,19,13,18,22.40
2014,08,19,13,19,22.50
2014,08,19,13,20,22.60
2014,08,19,13,21,22.60
2014,08,19,13,22,22.50
2014,08,19,13,23,22.50
2014,08,19,13,24,22.60
2014,08,19,13,25,22.70
2014,08,19,13,26,22.80
2014,08,19,13,27,22.80
2014,08,19,13,28,22.90
2014,08,19,13,29,22.90
2014,08,19,13,30,22.90
2014,08,19,13,31,22.90
2014,08,19,13,32,22.90
2014,08,19,13,33,23.00
2014,08,19,13,34,23.00
2014,08,19,13,35,22.90
2014,08,19,13,36,23.00
2014,08,19,13,37,23.10
2014,08,19,13,38,23.20
2014,08,19,13,39,23.30
2014,08,19,13,40,23.40
2014,08,19,13,41,23.50
2014,08,19,13,42,23.60
2014,08,19,13,43,23.80
2014,08,19,13,44,23.90
2014,08,19,13,45,23.90
2014,08,19,13,46,24.00
2014,08,19,13,47,24.10
2014,08,19,13,48,24.10
2014,08,19,13,49,24.20
2014,08,19,13,50,24.30
2014,08,19,13,51,24.30
2014,08,19,13,52,24.40
2014,08,19,13,53,24.50
2014,08,19,13,54,24.50
2014,08,19,13,55,24.60
2014,08,19,13,56,24.60
2014,08,19,13,57,24.70
2014,08,19,13,58,24.40
2014,08,19,13,59,23.90
2014,08,19,14,00,23.40
2014,08,19,14,01,23.10
2014,08,19,14,02,22.90
2014,08,19,14,03,22.70
2014,08,19,14,04,22.50
2014,08,19,14,05,22.30
2014,08,19,14,06,22.10
2014,08,19,14,07,22.00
2014,08,19,14,08,22.00
2014,08,19,14,09,22.00
2014,08,19,14,10,22.00
2014,08,19,14,11,22.10
2014,08,19,14,12,22.00
2014,08,19,14,13,22.00
2014,08,19,14,14,22.10
2014,08,19,14,15,22.10
2014,08,19,14,16,22.20
2014,08,19,14,17,22.20
2014,08,19,14,18,22.20
2014,08,19,14,19,22.20
2014,08,19,14,20,22.30
2014,08,19,14,21,22.30
2014,08,19,14,22,22.30
2014,08,19,14,23,22.30
2014,08,19,14,24,22.30
2014,08,19,14,25,22.20
2014,08,19,14,26,22.00
2014,08,19,14,27,21.70
2014,08,19,14,28,21.40
2014,08,19,14,29,21.20
2014,08,19,14,30,21.10
2014,08,19,14,31,21.00
2014,08,19,14,32,20.90
2014,08,19,14,33,20.70
2014,08,19,14,34,20.50
2014,08,19,14,35,20.40
2014,08,19,14,36,20.30
2014,08,19,14,37,20.20
2014,08,19,14,38,20.10
2014,08,19,14,39,19.90
2014,08,19,14,40,19.80
2014,08,19,14,41,19.60
2014,08,19,14,42,19.50
2014,08,19,14,43,19.30
2014,08,19,14,44,19.00
2014,08,19,14,45,18.70
2014,08,19,14,46,18.40
2014,08,19,14,47,18.20
2014,08,19,14,48,18.10
2014,08,19,14,49,18.00
2014,08,19,14,50,17.90
2014,08,19,14,51,17.90
2014,08,19,14,52,17.90
2014,08,19,14,53,17.90
2014,08,19,14,54,17.90
2014,08,19,14,55,17.90
2014,08,19,14,56,17.80
2014,08,19,14,57,17.80
2014,08,19,14,58,17.90
2014,08,19,14,59,18.00
2014,08,19,15,00,18.10
2014,08,19,15,01,18.10
2014,08,19,15,02,18.20
2014,08,19,15,03,18.10
2014,08,19,15,04,18.00
2014,08,19,15,05,17.90
2014,08,19,15,06,17.80
2014,08,19,15,07,17.70
2014,08,19,15,08,17.60
2014,08,19,15,09,17.60
2014,08,19,15,10,17.50
2014,08,19,15,11,17.40
2014,08,19,15,12,17.20
2014,08,19,15,13,17.00
2014,08,19,15,14,16.90
2014,08,19,15,15,16.80
2014,08,19,15,16,16.80
2014,08,19,15,17,16.70
2014,08,19,15,18,16.70
2014,08,19,15,19,16.70
2014,08,19,15,20,16.90
2014,08,19,15,21,17.10
2014,08,19,15,22,17.30
2014,08,19,15,23,17.40
2014,08,19,15,24,17.60
2014,08,19,15,25,17.80
2014,08,19,15,26,17.90
2014,08,19,15,27,18.10
2014,08,19,15,28,18.30
2014,08,19,15,29,18.40
2014,08,19,15,30,18.60
2014,08,19,15,31,18.80
2014,08,19,15,32,19.00
2014,08,19,15,33,19.10
2014,08,19,15,34,19.20
2014,08,19,15,35,19.30
2014,08,19,15,36,19.30
2014,08,19,15,37,19.30
2014,08,19,15,38,19.20
2014,08,19,15,39,19.10
2014,08,19,15,40,19.10
2014,08,19,15,41,19.10
2014,08,19,15,42,19.10
2014,08,19,15,43,19.00
2014,08,19,15,44,18.90
2014,08,19,15,45,18.90
2014,08,19,15,46,18.90
2014,08,19,15,47,18.90
2014,08,19,15,48,18.80
2014,08,19,15,49,18.80
2014,08,19,15,50,18.80
2014,08,19,15,51,18.90
2014,08,19,15,52,18.90
2014,08,19,15,53,18.90
2014,08,19,15,54,19.00
2014,08,19,15,55,19.10
2014,08,19,15,56,19.10
2014,08,19,15,57,19.10
2014,08,19,15,58,19.20
2014,08,19,15,59,19.20
2014,08,19,16,00,19.30
2014,08,19,16,01,19.30
2014,08,19,16,02,19.40
2014,08,19,16,03,19.50
2014,08,19,16,04,19.60
2014,08,19,16,05,19.70
2014,08,19,16,06,19.90
2014,08,19,16,07,20.00
2014,08,19,16,08,20.10
2014,08,19,16,09,20.20
2014,08,19,16,10,20.30
2014,08,19,16,11,20.40
2014,08,19,16,12,20.50
2014,08,19,16,13,20.60
2014,08,19,16,14,20.70
2014,08,19,16,15,20.80
2014,08,19,16,16,20.90
2014,08,19,16,17,21.00
2014,08,19,16,18,21.00
2014,08,19,16,19,21.20
2014,08,19,16,20,21.30
2014,08,19,16,21,21.30
2014,08,19,16,22,21.30
2014,08,19,16,23,21.30
2014,08,19,16,24,21.30
2014,08,19,16,25,21.30
2014,08,19,16,26,21.30
2014,08,19,16,27,21.30
2014,08,19,16,28,21.30
2014,08,19,16,29,21.30
2014,08,19,16,30,21.30
2014,08,19,16,31,21.30
2014,08,19,16,32,21.30
2014,08,19,16,33,21.30
2014,08,19,16,34,21.30
2014,08,19,16,35,21.30
2014,08,19,16,36,21.30
2014,08,19,16,37,21.30
2014,08,19,16,38,21.30
2014,08,19,16,39,21.40
2014,08,19,16,40,21.50
2014,08,19,16,41,21.60
2014,08,19,16,42,21.60
2014,08,19,16,43,21.70
2014,08,19,16,44,21.80
2014,08,19,16,45,21.90
2014,08,19,16,46,21.90
2014,08,19,16,47,22.00
2014,08,19,16,48,21.90
2014,08,19,16,49,21.90
2014,08,19,16,50,21.90
2014,08,19,16,51,21.90
2014,08,19,16,52,21.80
2014,08,19,16,53,21.70
2014,08,19,16,54,21.60
2014,08,19,16,55,21.60
2014,08,19,16,56,21.50
2014,08,19,16,57,21.40
2014,08,19,16,58,21.40
2014,08,19,16,59,21.40
2014,08,19,17,00,21.40
2014,08,19,17,01,21.40
2014,08,19,17,02,21.50
2014,08,19,17,03,21.60
2014,08,19,17,04,21.70
2014,08,19,17,05,21.90
2014,08,19,17,06,22.00
2014,08,19,17,07,22.10
2014,08,19,17,08,22.30
2014,08,19,17,09,22.40
2014,08,19,17,10,22.70
2014,08,19,17,11,23.10
2014,08,19,17,12,23.40
2014,08,19,17,13,23.70
2014,08,19,17,14,24.00
2014,08,19,17,15,24.20
2014,08,19,17,16,24.40
2014,08,19,17,17,24.50
2014,08,19,17,18,24.60
2014,08,19,17,19,24.70
2014,08,19,17,20,24.70
2014,08,19,17,21,24.80
2014,08,19,17,22,24.90
2014,08,19,17,23,24.90
2014,08,19,17,24,24.90
2014,08,19,17,25,24.90
2014,08,19,17,26,25.00
2014,08,19,17,27,25.00
2014,08,19,17,28,24.90
2014,08,19,17,29,24.90
2014,08,19,17,30,24.90
2014,08,19,17,31,24.90
2014,08,19,17,32,24.90
2014,08,19,17,33,24.80
2014,08,19,17,34,24.60
2014,08,19,17,35,24.60
2014,08,19,17,36,24.50
2014,08,19,17,37,24.60
2014,08,19,17,38,24.50
2014,08,19,17,39,24.50
2014,08,19,17,40,24.40
2014,08,19,17,41,24.40
2014,08,19,17,42,24.30
2014,08,19,17,43,24.30
2014,08,19,17,44,24.30
2014,08,19,17,45,24.20
2014,08,19,17,46,24.20
2014,08,19,17,47,24.20
2014,08,19,17,48,24.30
2014,08,19,17,49,24.30
2014,08,19,17,50,24.40
2014,08,19,17,51,24.50
2014,08,19,17,52,24.50
2014,08,19,17,53,24.50
2014,08,19,17,54,24.50
2014,08,19,17,55,24.40
2014,08,19,17,56,24.30
2014,08,19,17,57,24.20
2014,08,19,17,58,24.20
2014,08,19,17,59,24.20
2014,08,19,18,00,24.20
2014,08,19,18,01,24.30
2014,08,19,18,02,24.30
2014,08,19,18,03,24.20
2014,08,19,18,04,24.20
2014,08,19,18,05,24.10
2014,08,19,18,06,24.10
2014,08,19,18,07,24.10
2014,08,19,18,08,24.10
2014,08,19,18,09,24.10
2014,08,19,18,10,23.90
2014,08,19,18,11,23.90
2014,08,19,18,12,23.90
2014,08,19,18,13,23.90
2014,08,19,18,14,23.90
2014,08,19,18,15,23.90
2014,08,19,18,16,23.90
2014,08,19,18,17,23.80
2014,08,19,18,18,23.80
2014,08,19,18,19,23.80
2014,08,19,18,20,23.70
2014,08,19,18,21,23.70
2014,08,19,18,22,23.70
2014,08,19,18,23,23.60
2014,08,19,18,24,23.50
2014,08,19,18,25,23.50
2014,08,19,18,26,23.60
2014,08,19,18,27,23.50
2014,08,19,18,28,23.40
2014,08,19,18,29,23.40
2014,08,19,18,30,23.40
2014,08,19,18,31,23.30
2014,08,19,18,32,23.30
2014,08,19,18,33,23.20
2014,08,19,18,34,23.20
2014,08,19,18,35,23.20
2014,08,19,18,36,23.10
2014,08,19,18,37,23.10
2014,08,19,18,38,23.00
2014,08,19,18,39,23.00
2014,08,19,18,40,23.10
2014,08,19,18,41,23.10
2014,08,19,18,42,23.00
2014,08,19,18,43,22.90
2014,08,19,18,44,22.90
2014,08,19,18,45,22.90
2014,08,19,18,46,22.90
2014,08,19,18,47,22.90
2014,08,19,18,48,22.90
2014,08,19,18,49,22.90
2014,08,19,18,50,22.90
2014,08,19,18,51,22.80
2014,08,19,18,52,22.80
2014,08,19,18,53,22.70
2014,08,19,18,54,22.70
2014,08,19,18,55,22.70
2014,08,19,18,56,22.60
2014,08,19,18,57,22.60
2014,08,19,18,58,22.60
2014,08,19,18,59,22.60
2014,08,19,19,00,22.60
2014,08,19,19,01,22.60
2014,08,19,19,02,22.50
2014,08,19,19,03,22.50
2014,08,19,19,04,22.60
2014,08,19,19,05,22.60
2014,08,19,19,06,22.60
2014,08,19,19,07,22.50
2014,08,19,19,08,22.50
2014,08,19,19,09,22.40
2014,08,19,19,10,22.30
2014,08,19,19,11,22.30
2014,08,19,19,12,22.20
2014,08,19,19,13,22.20
2014,08,19,19,14,22.30
2014,08,19,19,15,22.20
2014,08,19,19,16,22.20
2014,08,19,19,17,22.20
2014,08,19,19,18,22.20
2014,08,19,19,19,22.20
2014,08,19,19,20,22.20
2014,08,19,19,21,22.20
2014,08,19,19,22,22.20
2014,08,19,19,23,22.20
2014,08,19,19,24,22.20
2014,08,19,19,25,22.20
2014,08,19,19,26,22.20
